User: anonymous   Login
Location: Natural Bridges National Monument
(37.6093°N, 109.9767°W)
Time: 17:14:45
(UTC-07:00)
Language:

USA 32 - Orbit

View from above orbital plane
View from above orbital plane
View from above satellite
View from above satellite

Ground track
Ground track

The orbit data is extracted from the following two-line orbital elements,

1 19460U 88078A   16335.76916473 0.00000070  00000-0  25409-4 0    06
2 19460  84.9873 337.1960 0007000  90.5189 269.4810 14.33398479    00
Epoch (UTC): 30 November 2016 18:27:35
Eccentricity: 0.0007000
inclination: 84.9873°
perigee height: 775 km
apogee height: 785 km
right ascension of ascending node: 337.1960°
argument of perigee: 90.5189°
revolutions per day: 14.33398479
mean anomaly at epoch: 269.4810°
orbit number at epoch: 0

The dashed part of the orbit path shows where the satellite is in the earth's shadow,  

DLR